iso_date,Year,Hour,Min,DOY,POS_DOY,Lat,Lon,BP,Ts,Ta,has_bp,has_ts,has_ta,BuoyID,Buoy_Type,Buoy_Owner,Logistics,Hemisphere
2020-09-05T18:00:00Z,2020,18,0,249.75,249.75,57.771,-59.893,991.0,3.02,-999.0,yes,yes,no,300234067876900,BD2GI,AOML,CCGS_AMUNDSEN,North
2020-09-05T19:00:02Z,2020,19,0,249.7917,249.7917,57.762,-59.867,991.1,3.03,-999.0,yes,yes,no,300234067876900,BD2GI,AOML,CCGS_AMUNDSEN,North
2020-09-05T19:59:57Z,2020,20,0,249.8333,249.8333,57.75,-59.841,991.5,3.05,-999.0,yes,yes,no,300234067876900,BD2GI,AOML,CCGS_AMUNDSEN,North
2020-09-05T21:00:00Z,2020,21,0,249.875,249.875,57.738,-59.819,992.0,3.06,-999.0,yes,yes,no,300234067876900,BD2GI,AOML,CCGS_AMUNDSEN,North
2020-09-05T22:00:02Z,2020,22,0,249.9167,249.9167,57.725,-59.8,992.8,3.04,-999.0,yes,yes,no,300234067876900,BD2GI,AOML,CCGS_AMUNDSEN,North
2020-09-05T22:59:57Z,2020,23,0,249.9583,249.9583,57.714,-59.783,993.8,3.06,-999.0,yes,yes,no,300234067876900,BD2GI,AOML,CCGS_AMUNDSEN,North
2020-09-06T00:00:00Z,2020,0,0,250.0,250.0,57.703,-59.766,994.8,3.26,-999.0,yes,yes,no,300234067876900,BD2GI,AOML,CCGS_AMUNDSEN,North
2020-09-06T01:00:02Z,2020,1,0,250.0417,250.0417,57.692,-59.751,995.3,3.49,-999.0,yes,yes,no,300234067876900,BD2GI,AOML,CCGS_AMUNDSEN,North
2020-09-06T01:59:57Z,2020,2,0,250.0833,250.0833,57.679,-59.743,996.0,3.54,-999.0,yes,yes,no,300234067876900,BD2GI,AOML,CCGS_AMUNDSEN,North
2020-09-06T03:00:00Z,2020,3,0,250.125,250.125,57.67,-59.731,996.6,3.45,-999.0,yes,yes,no,300234067876900,BD2GI,AOML,CCGS_AMUNDSEN,North
2020-09-06T04:00:02Z,2020,4,0,250.1667,250.1667,57.66,-59.717,997.3,3.4,-999.0,yes,yes,no,300234067876900,BD2GI,AOML,CCGS_AMUNDSEN,North
2020-09-06T04:59:57Z,2020,5,0,250.2083,250.2083,57.65,-59.701,997.8,3.31,-999.0,yes,yes,no,300234067876900,BD2GI,AOML,CCGS_AMUNDSEN,North
2020-09-06T06:00:00Z,2020,6,0,250.25,250.25,57.642,-59.682,998.5,3.19,-999.0,yes,yes,no,300234067876900,BD2GI,AOML,CCGS_AMUNDSEN,North
2020-09-06T07:00:02Z,2020,7,0,250.2917,250.2917,57.635,-59.665,999.7,3.19,-999.0,yes,yes,no,300234067876900,BD2GI,AOML,CCGS_AMUNDSEN,North
2020-09-06T07:59:57Z,2020,8,0,250.3333,250.3333,57.625,-59.639,1000.3,3.2,-999.0,yes,yes,no,300234067876900,BD2GI,AOML,CCGS_AMUNDSEN,North
2020-09-06T09:00:00Z,2020,9,0,250.375,250.375,57.612,-59.613,1001.3,3.13,-999.0,yes,yes,no,300234067876900,BD2GI,AOML,CCGS_AMUNDSEN,North
2020-09-06T10:00:02Z,2020,10,0,250.4167,250.4167,57.596,-59.592,1002.0,3.18,-999.0,yes,yes,no,300234067876900,BD2GI,AOML,CCGS_AMUNDSEN,North
2020-09-06T10:59:57Z,2020,11,0,250.4583,250.4583,57.578,-59.572,1003.0,3.18,-999.0,yes,yes,no,300234067876900,BD2GI,AOML,CCGS_AMUNDSEN,North
2020-09-06T12:00:00Z,2020,12,0,250.5,250.5,57.558,-59.558,1004.0,3.21,-999.0,yes,yes,no,300234067876900,BD2GI,AOML,CCGS_AMUNDSEN,North
2020-09-06T13:00:02Z,2020,13,0,250.5417,250.5417,57.54,-59.551,1004.7,3.25,-999.0,yes,yes,no,300234067876900,BD2GI,AOML,CCGS_AMUNDSEN,North
2020-09-06T13:59:57Z,2020,14,0,250.5833,250.5833,57.522,-59.546,1005.4,3.27,-999.0,yes,yes,no,300234067876900,BD2GI,AOML,CCGS_AMUNDSEN,North
2020-09-06T15:00:00Z,2020,15,0,250.625,250.625,57.504,-59.542,1006.4,3.28,-999.0,yes,yes,no,300234067876900,BD2GI,AOML,CCGS_AMUNDSEN,North
2020-09-06T16:00:02Z,2020,16,0,250.6667,250.6667,57.488,-59.537,1007.1,3.26,-999.0,yes,yes,no,300234067876900,BD2GI,AOML,CCGS_AMUNDSEN,North
2020-09-06T16:59:57Z,2020,17,0,250.7083,250.7083,57.473,-59.534,1008.4,3.31,-999.0,yes,yes,no,300234067876900,BD2GI,AOML,CCGS_AMUNDSEN,North
2020-09-06T18:00:00Z,2020,18,0,250.75,250.75,57.458,-59.532,1009.0,3.3,-999.0,yes,yes,no,300234067876900,BD2GI,AOML,CCGS_AMUNDSEN,North
2020-09-06T19:00:02Z,2020,19,0,250.7917,250.7917,57.446,-59.526,1009.9,3.35,-999.0,yes,yes,no,300234067876900,BD2GI,AOML,CCGS_AMUNDSEN,North
2020-09-06T19:59:57Z,2020,20,0,250.8333,250.8333,57.435,-59.521,1010.9,3.36,-999.0,yes,yes,no,300234067876900,BD2GI,AOML,CCGS_AMUNDSEN,North
2020-09-06T21:00:00Z,2020,21,0,250.875,250.875,57.425,-59.512,1011.5,3.39,-999.0,yes,yes,no,300234067876900,BD2GI,AOML,CCGS_AMUNDSEN,North
2020-09-06T22:00:02Z,2020,22,0,250.9167,250.9167,57.414,-59.498,1012.3,3.44,-999.0,yes,yes,no,300234067876900,BD2GI,AOML,CCGS_AMUNDSEN,North
2020-09-06T22:59:57Z,2020,23,0,250.9583,250.9583,57.402,-59.481,1013.1,3.45,-999.0,yes,yes,no,300234067876900,BD2GI,AOML,CCGS_AMUNDSEN,North
2020-09-07T00:00:00Z,2020,0,0,251.0,251.0,57.389,-59.466,1013.6,3.46,-999.0,yes,yes,no,300234067876900,BD2GI,AOML,CCGS_AMUNDSEN,North
2020-09-07T01:00:02Z,2020,1,0,251.0417,251.0417,57.374,-59.457,1013.8,3.45,-999.0,yes,yes,no,300234067876900,BD2GI,AOML,CCGS_AMUNDSEN,North
2020-09-07T01:59:57Z,2020,2,0,251.0833,251.0833,57.358,-59.446,1013.9,3.42,-999.0,yes,yes,no,300234067876900,BD2GI,AOML,CCGS_AMUNDSEN,North
2020-09-07T03:00:00Z,2020,3,0,251.125,251.125,57.344,-59.436,1014.2,3.41,-999.0,yes,yes,no,300234067876900,BD2GI,AOML,CCGS_AMUNDSEN,North
2020-09-07T04:00:02Z,2020,4,0,251.1667,251.1667,57.329,-59.426,1014.9,3.43,-999.0,yes,yes,no,300234067876900,BD2GI,AOML,CCGS_AMUNDSEN,North
2020-09-07T04:59:57Z,2020,5,0,251.2083,251.2083,57.316,-59.416,1015.4,3.42,-999.0,yes,yes,no,300234067876900,BD2GI,AOML,CCGS_AMUNDSEN,North
2020-09-07T06:00:00Z,2020,6,0,251.25,251.25,57.303,-59.405,1016.3,3.41,-999.0,yes,yes,no,300234067876900,BD2GI,AOML,CCGS_AMUNDSEN,North
2020-09-07T07:00:02Z,2020,7,0,251.2917,251.2917,57.289,-59.394,1016.5,3.41,-999.0,yes,yes,no,300234067876900,BD2GI,AOML,CCGS_AMUNDSEN,North
2020-09-07T07:59:57Z,2020,8,0,251.3333,251.3333,57.275,-59.383,1016.9,3.42,-999.0,yes,yes,no,300234067876900,BD2GI,AOML,CCGS_AMUNDSEN,North
2020-09-07T09:00:00Z,2020,9,0,251.375,251.375,57.261,-59.373,1017.1,3.41,-999.0,yes,yes,no,300234067876900,BD2GI,AOML,CCGS_AMUNDSEN,North
2020-09-07T10:00:02Z,2020,10,0,251.4167,251.4167,57.249,-59.363,1017.4,3.39,-999.0,yes,yes,no,300234067876900,BD2GI,AOML,CCGS_AMUNDSEN,North
2020-09-07T10:59:57Z,2020,11,0,251.4583,251.4583,57.238,-59.35,1017.5,3.39,-999.0,yes,yes,no,300234067876900,BD2GI,AOML,CCGS_AMUNDSEN,North
2020-09-07T12:00:00Z,2020,12,0,251.5,251.5,57.227,-59.336,1017.8,3.43,-999.0,yes,yes,no,300234067876900,BD2GI,AOML,CCGS_AMUNDSEN,North
2020-09-07T13:00:02Z,2020,13,0,251.5417,251.5417,57.217,-59.323,1018.0,3.48,-999.0,yes,yes,no,300234067876900,BD2GI,AOML,CCGS_AMUNDSEN,North
2020-09-07T13:59:57Z,2020,14,0,251.5833,251.5833,57.204,-59.305,1018.0,3.53,-999.0,yes,yes,no,300234067876900,BD2GI,AOML,CCGS_AMUNDSEN,North
2020-09-07T15:00:00Z,2020,15,0,251.625,251.625,57.19,-59.285,1018.2,3.59,-999.0,yes,yes,no,300234067876900,BD2GI,AOML,CCGS_AMUNDSEN,North
2020-09-07T16:00:02Z,2020,16,0,251.6667,251.6667,57.174,-59.267,1018.1,3.64,-999.0,yes,yes,no,300234067876900,BD2GI,AOML,CCGS_AMUNDSEN,North
2020-09-07T16:59:57Z,2020,17,0,251.7083,251.7083,57.156,-59.25,1018.1,3.69,-999.0,yes,yes,no,300234067876900,BD2GI,AOML,CCGS_AMUNDSEN,North
2020-09-07T18:00:00Z,2020,18,0,251.75,251.75,57.137,-59.235,1018.2,3.69,-999.0,yes,yes,no,300234067876900,BD2GI,AOML,CCGS_AMUNDSEN,North
2020-09-07T19:00:02Z,2020,19,0,251.7917,251.7917,57.12,-59.222,1017.8,3.73,-999.0,yes,yes,no,300234067876900,BD2GI,AOML,CCGS_AMUNDSEN,North
2020-09-07T19:59:57Z,2020,20,0,251.8333,251.8333,57.104,-59.209,1017.5,3.72,-999.0,yes,yes,no,300234067876900,BD2GI,AOML,CCGS_AMUNDSEN,North
2020-09-07T21:00:00Z,2020,21,0,251.875,251.875,57.089,-59.198,1017.0,3.7,-999.0,yes,yes,no,300234067876900,BD2GI,AOML,CCGS_AMUNDSEN,North
2020-09-07T22:00:02Z,2020,22,0,251.9167,251.9167,57.076,-59.185,1016.2,3.67,-999.0,yes,yes,no,300234067876900,BD2GI,AOML,CCGS_AMUNDSEN,North
2020-09-07T22:59:57Z,2020,23,0,251.9583,251.9583,57.062,-59.169,1016.1,3.66,-999.0,yes,yes,no,300234067876900,BD2GI,AOML,CCGS_AMUNDSEN,North
2020-09-08T00:00:00Z,2020,0,0,252.0,252.0,57.049,-59.157,1015.5,3.64,-999.0,yes,yes,no,300234067876900,BD2GI,AOML,CCGS_AMUNDSEN,North
2020-09-08T01:00:02Z,2020,1,0,252.0417,252.0417,57.036,-59.143,1014.2,3.66,-999.0,yes,yes,no,300234067876900,BD2GI,AOML,CCGS_AMUNDSEN,North
2020-09-08T01:59:57Z,2020,2,0,252.0833,252.0833,57.023,-59.13,1013.3,3.64,-999.0,yes,yes,no,300234067876900,BD2GI,AOML,CCGS_AMUNDSEN,North
2020-09-08T03:00:00Z,2020,3,0,252.125,252.125,57.011,-59.115,1012.0,3.62,-999.0,yes,yes,no,300234067876900,BD2GI,AOML,CCGS_AMUNDSEN,North
2020-09-08T04:00:02Z,2020,4,0,252.1667,252.1667,57.002,-59.096,1010.8,3.66,-999.0,yes,yes,no,300234067876900,BD2GI,AOML,CCGS_AMUNDSEN,North
2020-09-08T04:59:57Z,2020,5,0,252.2083,252.2083,56.993,-59.07,1009.6,3.63,-999.0,yes,yes,no,300234067876900,BD2GI,AOML,CCGS_AMUNDSEN,North
2020-09-08T06:00:00Z,2020,6,0,252.25,252.25,56.981,-59.043,1007.3,3.62,-999.0,yes,yes,no,300234067876900,BD2GI,AOML,CCGS_AMUNDSEN,North
2020-09-08T07:00:02Z,2020,7,0,252.2917,252.2917,56.966,-59.016,1005.7,3.61,-999.0,yes,yes,no,300234067876900,BD2GI,AOML,CCGS_AMUNDSEN,North
2020-09-08T07:59:57Z,2020,8,0,252.3333,252.3333,56.95,-58.99,1003.5,3.62,-999.0,yes,yes,no,300234067876900,BD2GI,AOML,CCGS_AMUNDSEN,North
2020-09-08T09:00:00Z,2020,9,0,252.375,252.375,56.935,-58.97,1001.6,3.59,-999.0,yes,yes,no,300234067876900,BD2GI,AOML,CCGS_AMUNDSEN,North
2020-09-08T10:00:02Z,2020,10,0,252.4167,252.4167,56.92,-58.952,1000.2,3.58,-999.0,yes,yes,no,300234067876900,BD2GI,AOML,CCGS_AMUNDSEN,North
2020-09-08T10:59:57Z,2020,11,0,252.4583,252.4583,56.907,-58.934,999.2,3.59,-999.0,yes,yes,no,300234067876900,BD2GI,AOML,CCGS_AMUNDSEN,North
2020-09-08T12:00:00Z,2020,12,0,252.5,252.5,56.897,-58.917,998.5,3.59,-999.0,yes,yes,no,300234067876900,BD2GI,AOML,CCGS_AMUNDSEN,North
2020-09-08T13:00:02Z,2020,13,0,252.5417,252.5417,56.888,-58.894,998.3,3.6,-999.0,yes,yes,no,300234067876900,BD2GI,AOML,CCGS_AMUNDSEN,North
2020-09-08T13:59:57Z,2020,14,0,252.5833,252.5833,56.876,-58.87,998.4,3.62,-999.0,yes,yes,no,300234067876900,BD2GI,AOML,CCGS_AMUNDSEN,North
2020-09-08T15:00:00Z,2020,15,0,252.625,252.625,56.864,-58.843,998.8,3.63,-999.0,yes,yes,no,300234067876900,BD2GI,AOML,CCGS_AMUNDSEN,North
2020-09-08T16:00:02Z,2020,16,0,252.6667,252.6667,56.849,-58.816,998.8,3.64,-999.0,yes,yes,no,300234067876900,BD2GI,AOML,CCGS_AMUNDSEN,North
2020-09-08T16:59:57Z,2020,17,0,252.7083,252.7083,56.83,-58.793,997.9,3.64,-999.0,yes,yes,no,300234067876900,BD2GI,AOML,CCGS_AMUNDSEN,North
2020-09-08T18:00:00Z,2020,18,0,252.75,252.75,56.813,-58.775,997.8,3.69,-999.0,yes,yes,no,300234067876900,BD2GI,AOML,CCGS_AMUNDSEN,North
2020-09-08T19:00:02Z,2020,19,0,252.7917,252.7917,56.797,-58.763,998.0,3.71,-999.0,yes,yes,no,300234067876900,BD2GI,AOML,CCGS_AMUNDSEN,North
2020-09-08T19:59:57Z,2020,20,0,252.8333,252.8333,56.783,-58.752,997.6,3.73,-999.0,yes,yes,no,300234067876900,BD2GI,AOML,CCGS_AMUNDSEN,North
2020-09-08T21:00:00Z,2020,21,0,252.875,252.875,56.769,-58.743,997.7,3.74,-999.0,yes,yes,no,300234067876900,BD2GI,AOML,CCGS_AMUNDSEN,North
2020-09-08T22:00:02Z,2020,22,0,252.9167,252.9167,56.759,-58.734,998.0,3.76,-999.0,yes,yes,no,300234067876900,BD2GI,AOML,CCGS_AMUNDSEN,North
2020-09-08T22:59:57Z,2020,23,0,252.9583,252.9583,56.749,-58.721,997.9,3.8,-999.0,yes,yes,no,300234067876900,BD2GI,AOML,CCGS_AMUNDSEN,North
2020-09-09T00:00:00Z,2020,0,0,253.0,253.0,56.739,-58.702,997.7,3.78,-999.0,yes,yes,no,300234067876900,BD2GI,AOML,CCGS_AMUNDSEN,North
2020-09-09T01:00:02Z,2020,1,0,253.0417,253.0417,56.731,-58.685,997.4,3.78,-999.0,yes,yes,no,300234067876900,BD2GI,AOML,CCGS_AMUNDSEN,North
2020-09-09T01:59:57Z,2020,2,0,253.0833,253.0833,56.725,-58.665,997.2,3.77,-999.0,yes,yes,no,300234067876900,BD2GI,AOML,CCGS_AMUNDSEN,North
2020-09-09T03:00:00Z,2020,3,0,253.125,253.125,56.717,-58.642,997.0,3.76,-999.0,yes,yes,no,300234067876900,BD2GI,AOML,CCGS_AMUNDSEN,North
2020-09-09T04:00:02Z,2020,4,0,253.1667,253.1667,56.706,-58.612,997.3,3.76,-999.0,yes,yes,no,300234067876900,BD2GI,AOML,CCGS_AMUNDSEN,North
2020-09-09T04:59:57Z,2020,5,0,253.2083,253.2083,56.693,-58.581,998.5,3.77,-999.0,yes,yes,no,300234067876900,BD2GI,AOML,CCGS_AMUNDSEN,North
2020-09-09T06:00:00Z,2020,6,0,253.25,253.25,56.68,-58.549,1000.7,3.78,-999.0,yes,yes,no,300234067876900,BD2GI,AOML,CCGS_AMUNDSEN,North
2020-09-09T07:00:02Z,2020,7,0,253.2917,253.2917,56.664,-58.52,1002.8,3.74,-999.0,yes,yes,no,300234067876900,BD2GI,AOML,CCGS_AMUNDSEN,North
2020-09-09T07:59:57Z,2020,8,0,253.3333,253.3333,56.645,-58.494,1004.9,3.69,-999.0,yes,yes,no,300234067876900,BD2GI,AOML,CCGS_AMUNDSEN,North
2020-09-09T09:00:00Z,2020,9,0,253.375,253.375,56.626,-58.474,1006.4,3.67,-999.0,yes,yes,no,300234067876900,BD2GI,AOML,CCGS_AMUNDSEN,North
2020-09-09T10:00:02Z,2020,10,0,253.4167,253.4167,56.605,-58.461,1008.4,3.67,-999.0,yes,yes,no,300234067876900,BD2GI,AOML,CCGS_AMUNDSEN,North
2020-09-09T10:59:57Z,2020,11,0,253.4583,253.4583,56.585,-58.45,1010.2,3.67,-999.0,yes,yes,no,300234067876900,BD2GI,AOML,CCGS_AMUNDSEN,North
2020-09-09T12:00:00Z,2020,12,0,253.5,253.5,56.564,-58.447,1012.1,3.67,-999.0,yes,yes,no,300234067876900,BD2GI,AOML,CCGS_AMUNDSEN,North
2020-09-09T13:00:02Z,2020,13,0,253.5417,253.5417,56.548,-58.45,1013.1,3.69,-999.0,yes,yes,no,300234067876900,BD2GI,AOML,CCGS_AMUNDSEN,North
2020-09-09T13:59:57Z,2020,14,0,253.5833,253.5833,56.535,-58.452,1014.3,3.7,-999.0,yes,yes,no,300234067876900,BD2GI,AOML,CCGS_AMUNDSEN,North
2020-09-09T15:00:00Z,2020,15,0,253.625,253.625,56.527,-58.454,1015.8,3.73,-999.0,yes,yes,no,300234067876900,BD2GI,AOML,CCGS_AMUNDSEN,North
2020-09-09T16:00:02Z,2020,16,0,253.6667,253.6667,56.522,-58.451,1016.8,3.75,-999.0,yes,yes,no,300234067876900,BD2GI,AOML,CCGS_AMUNDSEN,North
2020-09-09T16:59:57Z,2020,17,0,253.7083,253.7083,56.518,-58.441,1017.9,3.79,-999.0,yes,yes,no,300234067876900,BD2GI,AOML,CCGS_AMUNDSEN,North
2020-09-09T18:00:00Z,2020,18,0,253.75,253.75,56.511,-58.424,1018.8,3.8,-999.0,yes,yes,no,300234067876900,BD2GI,AOML,CCGS_AMUNDSEN,North
2020-09-09T19:00:02Z,2020,19,0,253.7917,253.7917,56.501,-58.407,1019.5,3.77,-999.0,yes,yes,no,300234067876900,BD2GI,AOML,CCGS_AMUNDSEN,North
2020-09-09T19:59:57Z,2020,20,0,253.8333,253.8333,56.49,-58.391,1019.9,3.76,-999.0,yes,yes,no,300234067876900,BD2GI,AOML,CCGS_AMUNDSEN,North
2020-09-09T21:00:00Z,2020,21,0,253.875,253.875,56.482,-58.377,1019.9,3.74,-999.0,yes,yes,no,300234067876900,BD2GI,AOML,CCGS_AMUNDSEN,North
2020-09-09T22:00:02Z,2020,22,0,253.9167,253.9167,56.473,-58.363,1020.1,3.73,-999.0,yes,yes,no,300234067876900,BD2GI,AOML,CCGS_AMUNDSEN,North
2020-09-09T22:59:57Z,2020,23,0,253.9583,253.9583,56.463,-58.349,1020.5,3.74,-999.0,yes,yes,no,300234067876900,BD2GI,AOML,CCGS_AMUNDSEN,North
2020-09-10T00:00:00Z,2020,0,0,254.0,254.0,56.451,-58.335,1020.8,3.75,-999.0,yes,yes,no,300234067876900,BD2GI,AOML,CCGS_AMUNDSEN,North
2020-09-10T01:00:02Z,2020,1,0,254.0417,254.0417,56.437,-58.327,1021.1,3.76,-999.0,yes,yes,no,300234067876900,BD2GI,AOML,CCGS_AMUNDSEN,North
2020-09-10T01:59:57Z,2020,2,0,254.0833,254.0833,56.425,-58.321,1021.1,3.75,-999.0,yes,yes,no,300234067876900,BD2GI,AOML,CCGS_AMUNDSEN,North
2020-09-10T03:00:00Z,2020,3,0,254.125,254.125,56.418,-58.317,1021.2,3.75,-999.0,yes,yes,no,300234067876900,BD2GI,AOML,CCGS_AMUNDSEN,North
2020-09-10T04:00:02Z,2020,4,0,254.1667,254.1667,56.413,-58.311,1021.2,3.73,-999.0,yes,yes,no,300234067876900,BD2GI,AOML,CCGS_AMUNDSEN,North
2020-09-10T04:59:57Z,2020,5,0,254.2083,254.2083,56.411,-58.3,1021.4,3.71,-999.0,yes,yes,no,300234067876900,BD2GI,AOML,CCGS_AMUNDSEN,North
2020-09-10T06:00:00Z,2020,6,0,254.25,254.25,56.407,-58.287,1021.6,3.7,-999.0,yes,yes,no,300234067876900,BD2GI,AOML,CCGS_AMUNDSEN,North
2020-09-10T07:00:02Z,2020,7,0,254.2917,254.2917,56.401,-58.273,1022.0,3.69,-999.0,yes,yes,no,300234067876900,BD2GI,AOML,CCGS_AMUNDSEN,North
2020-09-10T07:59:57Z,2020,8,0,254.3333,254.3333,56.396,-58.257,1022.1,3.68,-999.0,yes,yes,no,300234067876900,BD2GI,AOML,CCGS_AMUNDSEN,North
2020-09-10T09:00:00Z,2020,9,0,254.375,254.375,56.392,-58.236,1022.7,3.69,-999.0,yes,yes,no,300234067876900,BD2GI,AOML,CCGS_AMUNDSEN,North
2020-09-10T10:00:02Z,2020,10,0,254.4167,254.4167,56.389,-58.213,1023.7,3.71,-999.0,yes,yes,no,300234067876900,BD2GI,AOML,CCGS_AMUNDSEN,North
2020-09-10T10:59:57Z,2020,11,0,254.4583,254.4583,56.382,-58.189,1024.7,3.73,-999.0,yes,yes,no,300234067876900,BD2GI,AOML,CCGS_AMUNDSEN,North
2020-09-10T12:00:00Z,2020,12,0,254.5,254.5,56.374,-58.166,1025.3,3.75,-999.0,yes,yes,no,300234067876900,BD2GI,AOML,CCGS_AMUNDSEN,North
2020-09-10T13:00:02Z,2020,13,0,254.5417,254.5417,56.364,-58.147,1025.4,3.78,-999.0,yes,yes,no,300234067876900,BD2GI,AOML,CCGS_AMUNDSEN,North
2020-09-10T13:59:57Z,2020,14,0,254.5833,254.5833,56.353,-58.132,1025.6,3.83,-999.0,yes,yes,no,300234067876900,BD2GI,AOML,CCGS_AMUNDSEN,North
2020-09-10T15:00:00Z,2020,15,0,254.625,254.625,56.342,-58.119,1025.8,3.88,-999.0,yes,yes,no,300234067876900,BD2GI,AOML,CCGS_AMUNDSEN,North
2020-09-10T16:00:02Z,2020,16,0,254.6667,254.6667,56.335,-58.109,1025.4,3.94,-999.0,yes,yes,no,300234067876900,BD2GI,AOML,CCGS_AMUNDSEN,North
2020-09-10T16:59:57Z,2020,17,0,254.7083,254.7083,56.33,-58.095,1025.3,3.96,-999.0,yes,yes,no,300234067876900,BD2GI,AOML,CCGS_AMUNDSEN,North
2020-09-10T18:00:00Z,2020,18,0,254.75,254.75,56.326,-58.079,1025.0,4.01,-999.0,yes,yes,no,300234067876900,BD2GI,AOML,CCGS_AMUNDSEN,North
2020-09-10T19:00:02Z,2020,19,0,254.7917,254.7917,56.322,-58.059,1024.9,4.0,-999.0,yes,yes,no,300234067876900,BD2GI,AOML,CCGS_AMUNDSEN,North
2020-09-10T19:59:57Z,2020,20,0,254.8333,254.8333,56.317,-58.037,1024.9,4.01,-999.0,yes,yes,no,300234067876900,BD2GI,AOML,CCGS_AMUNDSEN,North
2020-09-10T21:00:00Z,2020,21,0,254.875,254.875,56.311,-58.013,1024.6,4.02,-999.0,yes,yes,no,300234067876900,BD2GI,AOML,CCGS_AMUNDSEN,North
2020-09-10T22:00:02Z,2020,22,0,254.9167,254.9167,56.305,-57.986,1023.8,3.98,-999.0,yes,yes,no,300234067876900,BD2GI,AOML,CCGS_AMUNDSEN,North
2020-09-10T22:59:57Z,2020,23,0,254.9583,254.9583,56.298,-57.957,1023.6,3.98,-999.0,yes,yes,no,300234067876900,BD2GI,AOML,CCGS_AMUNDSEN,North
2020-09-11T00:00:00Z,2020,0,0,255.0,255.0,56.289,-57.929,1023.4,3.94,-999.0,yes,yes,no,300234067876900,BD2GI,AOML,CCGS_AMUNDSEN,North
2020-09-11T01:00:02Z,2020,1,0,255.0417,255.0417,56.278,-57.904,1022.7,3.93,-999.0,yes,yes,no,300234067876900,BD2GI,AOML,CCGS_AMUNDSEN,North
2020-09-11T01:59:57Z,2020,2,0,255.0833,255.0833,56.267,-57.879,1022.0,3.92,-999.0,yes,yes,no,300234067876900,BD2GI,AOML,CCGS_AMUNDSEN,North
2020-09-11T03:00:00Z,2020,3,0,255.125,255.125,56.254,-57.855,1021.4,3.86,-999.0,yes,yes,no,300234067876900,BD2GI,AOML,CCGS_AMUNDSEN,North
2020-09-11T04:00:02Z,2020,4,0,255.1667,255.1667,56.24,-57.831,1021.0,3.9,-999.0,yes,yes,no,300234067876900,BD2GI,AOML,CCGS_AMUNDSEN,North
2020-09-11T04:59:57Z,2020,5,0,255.2083,255.2083,56.225,-57.81,1020.6,3.89,-999.0,yes,yes,no,300234067876900,BD2GI,AOML,CCGS_AMUNDSEN,North
2020-09-11T06:00:00Z,2020,6,0,255.25,255.25,56.209,-57.793,1020.0,3.92,-999.0,yes,yes,no,300234067876900,BD2GI,AOML,CCGS_AMUNDSEN,North
2020-09-11T07:00:02Z,2020,7,0,255.2917,255.2917,56.192,-57.776,1019.4,3.87,-999.0,yes,yes,no,300234067876900,BD2GI,AOML,CCGS_AMUNDSEN,North
2020-09-11T07:59:57Z,2020,8,0,255.3333,255.3333,56.174,-57.767,1018.9,3.88,-999.0,yes,yes,no,300234067876900,BD2GI,AOML,CCGS_AMUNDSEN,North
2020-09-11T09:00:00Z,2020,9,0,255.375,255.375,56.157,-57.761,1018.5,3.86,-999.0,yes,yes,no,300234067876900,BD2GI,AOML,CCGS_AMUNDSEN,North
2020-09-11T10:00:02Z,2020,10,0,255.4167,255.4167,56.142,-57.754,1018.4,3.85,-999.0,yes,yes,no,300234067876900,BD2GI,AOML,CCGS_AMUNDSEN,North
2020-09-11T10:59:57Z,2020,11,0,255.4583,255.4583,56.127,-57.75,1018.2,3.85,-999.0,yes,yes,no,300234067876900,BD2GI,AOML,CCGS_AMUNDSEN,North
2020-09-11T12:00:00Z,2020,12,0,255.5,255.5,56.113,-57.746,1017.8,3.74,-999.0,yes,yes,no,300234067876900,BD2GI,AOML,CCGS_AMUNDSEN,North
2020-09-11T13:00:02Z,2020,13,0,255.5417,255.5417,56.099,-57.743,1017.5,3.92,-999.0,yes,yes,no,300234067876900,BD2GI,AOML,CCGS_AMUNDSEN,North
2020-09-11T13:59:57Z,2020,14,0,255.5833,255.5833,56.086,-57.744,1017.0,4.01,-999.0,yes,yes,no,300234067876900,BD2GI,AOML,CCGS_AMUNDSEN,North
2020-09-11T15:00:00Z,2020,15,0,255.625,255.625,56.075,-57.743,1016.2,3.95,-999.0,yes,yes,no,300234067876900,BD2GI,AOML,CCGS_AMUNDSEN,North
2020-09-11T16:00:02Z,2020,16,0,255.6667,255.6667,56.063,-57.745,1015.5,4.07,-999.0,yes,yes,no,300234067876900,BD2GI,AOML,CCGS_AMUNDSEN,North
2020-09-11T16:59:57Z,2020,17,0,255.7083,255.7083,56.05,-57.745,1014.7,4.11,-999.0,yes,yes,no,300234067876900,BD2GI,AOML,CCGS_AMUNDSEN,North
2020-09-11T18:00:00Z,2020,18,0,255.75,255.75,56.038,-57.745,1014.1,4.36,-999.0,yes,yes,no,300234067876900,BD2GI,AOML,CCGS_AMUNDSEN,North
2020-09-11T19:00:02Z,2020,19,0,255.7917,255.7917,56.026,-57.745,1013.8,4.8,-999.0,yes,yes,no,300234067876900,BD2GI,AOML,CCGS_AMUNDSEN,North
2020-09-11T19:59:57Z,2020,20,0,255.8333,255.8333,56.015,-57.742,1013.3,5.02,-999.0,yes,yes,no,300234067876900,BD2GI,AOML,CCGS_AMUNDSEN,North
2020-09-11T21:00:00Z,2020,21,0,255.875,255.875,56.004,-57.734,1013.1,5.23,-999.0,yes,yes,no,300234067876900,BD2GI,AOML,CCGS_AMUNDSEN,North
2020-09-11T22:00:02Z,2020,22,0,255.9167,255.9167,55.992,-57.723,1012.7,5.07,-999.0,yes,yes,no,300234067876900,BD2GI,AOML,CCGS_AMUNDSEN,North
2020-09-11T22:59:57Z,2020,23,0,255.9583,255.9583,55.981,-57.711,1012.6,5.01,-999.0,yes,yes,no,300234067876900,BD2GI,AOML,CCGS_AMUNDSEN,North
2020-09-12T00:00:00Z,2020,0,0,256.0,256.0,55.97,-57.698,1012.0,5.07,-999.0,yes,yes,no,300234067876900,BD2GI,AOML,CCGS_AMUNDSEN,North
2020-09-12T01:00:02Z,2020,1,0,256.0417,256.0417,55.962,-57.679,1011.4,5.07,-999.0,yes,yes,no,300234067876900,BD2GI,AOML,CCGS_AMUNDSEN,North
2020-09-12T01:59:57Z,2020,2,0,256.0833,256.0833,55.953,-57.658,1010.8,5.06,-999.0,yes,yes,no,300234067876900,BD2GI,AOML,CCGS_AMUNDSEN,North
2020-09-12T03:00:00Z,2020,3,0,256.125,256.125,55.942,-57.635,1010.0,5.07,-999.0,yes,yes,no,300234067876900,BD2GI,AOML,CCGS_AMUNDSEN,North
2020-09-12T04:00:02Z,2020,4,0,256.1667,256.1667,55.931,-57.606,1009.2,5.04,-999.0,yes,yes,no,300234067876900,BD2GI,AOML,CCGS_AMUNDSEN,North
2020-09-12T04:59:57Z,2020,5,0,256.2083,256.2083,55.919,-57.578,1008.4,5.02,-999.0,yes,yes,no,300234067876900,BD2GI,AOML,CCGS_AMUNDSEN,North
2020-09-12T06:00:00Z,2020,6,0,256.25,256.25,55.906,-57.546,1008.3,4.98,-999.0,yes,yes,no,300234067876900,BD2GI,AOML,CCGS_AMUNDSEN,North
2020-09-12T07:00:02Z,2020,7,0,256.2917,256.2917,55.89,-57.514,1008.3,4.98,-999.0,yes,yes,no,300234067876900,BD2GI,AOML,CCGS_AMUNDSEN,North
2020-09-12T07:59:57Z,2020,8,0,256.3333,256.3333,55.874,-57.48,1008.3,4.93,-999.0,yes,yes,no,300234067876900,BD2GI,AOML,CCGS_AMUNDSEN,North
2020-09-12T09:00:00Z,2020,9,0,256.375,256.375,55.857,-57.443,1008.6,4.9,-999.0,yes,yes,no,300234067876900,BD2GI,AOML,CCGS_AMUNDSEN,North
2020-09-12T10:00:02Z,2020,10,0,256.4167,256.4167,55.839,-57.404,1008.9,4.74,-999.0,yes,yes,no,300234067876900,BD2GI,AOML,CCGS_AMUNDSEN,North
2020-09-12T10:59:57Z,2020,11,0,256.4583,256.4583,55.819,-57.365,1009.1,4.59,-999.0,yes,yes,no,300234067876900,BD2GI,AOML,CCGS_AMUNDSEN,North
2020-09-12T12:00:00Z,2020,12,0,256.5,256.5,55.798,-57.327,1009.4,4.58,-999.0,yes,yes,no,300234067876900,BD2GI,AOML,CCGS_AMUNDSEN,North
2020-09-12T13:00:02Z,2020,13,0,256.5417,256.5417,55.775,-57.287,1009.9,4.58,-999.0,yes,yes,no,300234067876900,BD2GI,AOML,CCGS_AMUNDSEN,North
2020-09-12T13:59:57Z,2020,14,0,256.5833,256.5833,55.751,-57.25,1010.1,4.6,-999.0,yes,yes,no,300234067876900,BD2GI,AOML,CCGS_AMUNDSEN,North
2020-09-12T15:00:00Z,2020,15,0,256.625,256.625,55.73,-57.216,1010.3,4.63,-999.0,yes,yes,no,300234067876900,BD2GI,AOML,CCGS_AMUNDSEN,North
2020-09-12T16:00:02Z,2020,16,0,256.6667,256.6667,55.711,-57.182,1010.4,4.63,-999.0,yes,yes,no,300234067876900,BD2GI,AOML,CCGS_AMUNDSEN,North
2020-09-12T16:59:57Z,2020,17,0,256.7083,256.7083,55.695,-57.149,1010.6,4.61,-999.0,yes,yes,no,300234067876900,BD2GI,AOML,CCGS_AMUNDSEN,North
2020-09-12T18:00:00Z,2020,18,0,256.75,256.75,55.681,-57.115,1011.0,4.56,-999.0,yes,yes,no,300234067876900,BD2GI,AOML,CCGS_AMUNDSEN,North
2020-09-12T19:00:02Z,2020,19,0,256.7917,256.7917,55.669,-57.076,1011.2,4.55,-999.0,yes,yes,no,300234067876900,BD2GI,AOML,CCGS_AMUNDSEN,North
2020-09-12T19:59:57Z,2020,20,0,256.8333,256.8333,55.659,-57.036,1011.7,4.5,-999.0,yes,yes,no,300234067876900,BD2GI,AOML,CCGS_AMUNDSEN,North